Gainesville, FL

7:07 AM EST on December 07, 2019 (GMT -0500)
Gainesville Regional

Weather History for KGNV - October, 2019

Change the Weather History Date:

Sunday, October 27, 2019

  Actual Average Record
Temperature  
Mean Temperature 76 °F 68 °F  
Max Temperature 82 °F 79 °F 92 °F (2010)
Min Temperature 70 °F 57 °F 34 °F (1962)
Degree Days  
Heating Degree Days 0 2  
Month to date heating degree days 0 18  
Since 1 July heating degree days 0 18  
Cooling Degree Days 11 4  
Month to date cooling degree days 285 195  
Year to date cooling degree days 3301 2535  
Growing Degree Days 26 (Base 50)    
Moisture  
Dew Point 73 °F    
Average Humidity 90    
Maximum Humidity 100    
Minimum Humidity 79    
Precipitation  
Precipitation 0.08 in 0.06 in 3.00 in (1997)
Month to date precipitation 3.59 2.61  
Year to date precipitation 41.83 42.60  
Snow  
Snow 0.00 in 0.00 in 0.00 in ()
Month to date snowfall 0.0 0.0  
Since 1 July snowfall 0.0 0.0  
Since 1 September snowfall 0.0 0.0  
Snow Depth 0.00 in    
Sea Level Pressure  
Sea Level Pressure 29.99 in    
Wind  
Wind Speed 5 mph (SSW)    
Max Wind Speed 15 mph    
Max Gust Speed 18 mph    
Visibility 6 miles    
Events Fog , Rain    
T = Trace of Precipitation, MM = Missing Value Source: NWS Daily Summary

Daily Weather History Graph

Daily Weather History Graph

Search for Another Location

Airport or City:

Astronomy

Oct. 27, 2019 Rise Set
Actual Time 7:38 AM EDT 6:46 PM EDT
Civil Twilight 7:14 AM EDT 7:11 PM EDT
Nautical Twilight 6:46 AM EDT 7:39 PM EDT
Astronomical Twilight 6:18 AM EDT 8:07 PM EDT
Moon 6:53 AM EDT (10/27) 6:50 PM EDT (10/27)
Length of Visible Light 11h 56m
Length of Day
11h 08m
Waning Crescent, 0% of the Moon is Illuminated
Oct 27
Waning Crescent
Oct 27
New
Nov 4
First Quarter
Nov 12
Full
Nov 19
Last Quarter

Hourly Weather History & Observations

Time (EDT) Temp. Heat Index Dew Point Humidity Pressure Visibility Wind Dir Wind Speed Gust Speed Precip Events Conditions
12:53 AM 73.0 °F - 72.0 °F 96% 29.96 in 8.0 mi SE 4.6 mph - N/A   Partly Cloudy
1:14 AM 73.0 °F - 72.0 °F 96% 29.96 in 7.0 mi SE 3.5 mph - N/A   Mostly Cloudy
1:53 AM 73.9 °F - 73.0 °F 97% 29.94 in 6.0 mi SSE 5.8 mph - N/A   Overcast
2:53 AM 73.9 °F - 73.0 °F 97% 29.93 in 7.0 mi SSE 5.8 mph - N/A   Overcast
3:36 AM 73.9 °F - 73.0 °F 97% 29.93 in 7.0 mi SSE 6.9 mph - N/A   Overcast
3:53 AM 73.9 °F - 73.0 °F 97% 29.92 in 7.0 mi South 9.2 mph - N/A   Overcast
4:53 AM 75.0 °F - 73.0 °F 94% 29.93 in 6.0 mi South 6.9 mph - N/A   Overcast
5:13 AM 75.0 °F - 73.0 °F 94% 29.94 in 6.0 mi South 5.8 mph - N/A   Overcast
5:53 AM 73.9 °F - 73.0 °F 97% 29.93 in 5.0 mi SSE 5.8 mph - N/A   Overcast
6:37 AM 73.9 °F - 72.0 °F 93% 29.96 in 5.0 mi South 3.5 mph - N/A   Mostly Cloudy
6:48 AM 73.4 °F - 71.6 °F 94% 29.96 in 5.0 mi SSE 5.8 mph - N/A   Mostly Cloudy
6:53 AM 73.9 °F - 72.0 °F 93% 29.95 in 5.0 mi SSE 4.6 mph - N/A   Overcast
7:53 AM 73.9 °F - 73.0 °F 97% 29.96 in 4.0 mi Calm Calm - N/A   Overcast
8:10 AM 73.9 °F - 73.0 °F 97% 29.97 in 4.0 mi SSE 5.8 mph - N/A   Mostly Cloudy
8:22 AM 75.0 °F - 73.0 °F 94% 29.98 in 4.0 mi SSE 6.9 mph - N/A   Scattered Clouds
8:42 AM 75.0 °F - 73.9 °F 96% 29.99 in 5.0 mi South 5.8 mph - N/A   Mostly Cloudy
8:53 AM 75.9 °F - 73.9 °F 94% 29.98 in 5.0 mi South 5.8 mph - N/A   Mostly Cloudy
9:16 AM 77.0 °F - 75.0 °F 94% 30.00 in 6.0 mi SSE 6.9 mph - N/A   Mostly Cloudy
9:53 AM 78.1 °F - 75.0 °F 90% 30.01 in 8.0 mi South 8.1 mph - N/A   Overcast
10:19 AM 80.1 °F 85.1 °F 75.0 °F 85% 30.01 in 10.0 mi South 10.4 mph - N/A   Mostly Cloudy
10:51 AM 80.6 °F 86.2 °F 75.2 °F 84% 30.02 in 10.0 mi South 8.1 mph - N/A   Scattered Clouds
10:53 AM 80.1 °F 85.1 °F 75.0 °F 85% 30.01 in 10.0 mi South 8.1 mph - N/A   Overcast
11:53 AM 79.0 °F - 73.9 °F 84% 30.01 in 10.0 mi SSW 6.9 mph - N/A   Partly Cloudy
12:13 PM 79.0 °F - 75.0 °F 88% 30.03 in 9.0 mi South 8.1 mph - 0.00 in Rain Light Rain
12:24 PM 79.0 °F - 75.0 °F 88% 30.03 in 9.0 mi South 5.8 mph - 0.00 in Rain Light Rain
12:53 PM 79.0 °F - 73.9 °F 84% 30.01 in 9.0 mi WSW 11.5 mph 18.4 mph 0.00 in   Mostly Cloudy
1:08 PM 75.9 °F - 73.0 °F 91% 30.02 in 9.0 mi WSW 10.4 mph - 0.00 in Rain Light Rain
1:15 PM 75.9 °F - 73.0 °F 91% 30.01 in 1.5 mi West 9.2 mph - 0.01 in Rain Heavy Rain
1:25 PM 75.9 °F - 73.9 °F 94% 30.01 in 3.0 mi West 4.6 mph - 0.06 in Rain Light Rain
1:53 PM 77.0 °F - 73.9 °F 90% 29.99 in 10.0 mi West 8.1 mph - 0.07 in Rain Light Rain
2:07 PM 77.0 °F - 73.9 °F 90% 30.00 in 10.0 mi West 5.8 mph - 0.00 in Rain Light Rain
2:16 PM 77.0 °F - 75.0 °F 94% 30.00 in 8.0 mi WSW 10.4 mph - 0.01 in Rain Light Rain
2:53 PM 80.1 °F 85.1 °F 75.0 °F 85% 29.98 in 10.0 mi West 8.1 mph - 0.01 in   Mostly Cloudy
3:51 PM 80.6 °F 85.4 °F 73.4 °F 79% 29.98 in 10.0 mi SW 10.4 mph - N/A   Scattered Clouds
3:53 PM 81.0 °F 86.2 °F 73.9 °F 79% 29.97 in 10.0 mi SW 11.5 mph - N/A   Scattered Clouds
4:53 PM 81.0 °F 86.2 °F 73.9 °F 79% 29.97 in 10.0 mi WSW 8.1 mph - N/A   Partly Cloudy
5:36 PM 81.0 °F 86.2 °F 73.9 °F 79% 29.98 in 10.0 mi West 4.6 mph - N/A   Mostly Cloudy
5:45 PM 80.1 °F 84.2 °F 73.0 °F 79% 29.98 in 10.0 mi WNW 4.6 mph - N/A   Scattered Clouds
5:53 PM 81.0 °F 86.2 °F 73.9 °F 79% 29.97 in 10.0 mi WNW 4.6 mph - N/A   Partly Cloudy
6:53 PM 79.0 °F - 73.0 °F 82% 29.98 in 10.0 mi Calm Calm - N/A   Partly Cloudy
7:53 PM 75.0 °F - 73.0 °F 94% 29.99 in 10.0 mi Calm Calm - N/A   Clear
8:53 PM 73.9 °F - 73.0 °F 97% 30.01 in 4.0 mi Calm Calm - N/A   Clear
9:16 PM 73.9 °F - 73.0 °F 97% 30.02 in 1.8 mi Calm Calm - N/A   Clear
9:25 PM 73.0 °F - 72.0 °F 96% 30.03 in 4.0 mi Calm Calm - N/A   Clear
9:39 PM 73.0 °F - 71.1 °F 93% 30.03 in 1.5 mi Calm Calm - N/A   Clear
9:49 PM 71.6 °F - 71.6 °F 100% 30.03 in 3.0 mi Calm Calm - N/A   Clear
9:53 PM 72.0 °F - 71.1 °F 97% 30.02 in 8.0 mi Calm Calm - N/A   Clear
10:11 PM 73.0 °F - 72.0 °F 96% 30.03 in 0.8 mi Calm Calm - N/A   Clear
10:15 PM 73.0 °F - 72.0 °F 96% 30.03 in 2.0 mi Calm Calm - N/A   Clear
10:26 PM 72.0 °F - 71.1 °F 97% 30.04 in 1.0 mi Calm Calm - N/A   Clear
10:39 PM 73.0 °F - 71.1 °F 93% 30.03 in 0.5 mi Calm Calm - N/A Fog Fog
10:48 PM 73.4 °F - 71.6 °F 94% 30.03 in 2.0 mi Calm Calm - N/A   Clear
10:53 PM 73.0 °F - 72.0 °F 96% 30.03 in 1.5 mi Calm Calm - N/A   Clear
11:01 PM 72.0 °F - 71.1 °F 97% 30.04 in 3.0 mi Calm Calm - N/A   Clear
11:36 PM 72.0 °F - 71.1 °F 97% 30.03 in 2.0 mi Calm Calm - N/A   Clear
11:45 PM 72.0 °F - 71.1 °F 97% 30.03 in 9.0 mi Calm Calm - N/A   Clear
11:53 PM 71.1 °F - 70.0 °F 96% 30.02 in 8.0 mi Calm Calm - N/A   Clear